Regional Weather Roundup
Issued by NWS

Home | Current Version | Previous Version | Graphics & Text | Print | Product List | Glossary On
Versions: 1 2 3 4 5 6 7 8 9 10 11 12 13 14 15 16 17 18 19 20 21 22 23 24 25 26 27 28
000
ASUS45 KSLC 150310
RWRUT

UTAH REGIONAL WEATHER ROUNDUP
NATIONAL WEATHER SERVICE SALT LAKE CITY UT
800 PM MST THU DEC 14 2017

UTZ001>011-023>025-150400-

NORTHERN UTAH

CITY           SKY/WX    TMP DP  RH WIND       PRES   REMARKS
BRIGHAM CITY   CLEAR     28  23  84 CALM      30.43F
HILL AFB       CLEAR     26  22  84 E6        30.41S WCI  20
LOGAN          CLEAR     24  17  74 CALM      30.42S
OGDEN          CLEAR     28  23  81 S6        30.41S WCI  22
SALT LAKE CITY CLEAR     31  26  82 CALM      30.43R
TOOELE VALLEY  CLEAR     21  19  93 S8        30.43S WCI  12
WENDOVER       CLEAR     22  16  78 CALM      30.43S
HEBER CITY       N/A     21  16  79 E6        30.39R WCI  14
WEST JORDAN    CLEAR     27  24  90 SW6       30.43S WCI  20

$$

UTZ011>015-024>027-150400-

CENTRAL/NORTHEAST UTAH

CITY           SKY/WX    TMP DP  RH WIND       PRES   REMARKS
PROVO AIRPORT  PTCLDY    22  20  92 SE3       30.45R
MOAB/CANYONLAN CLEAR     30  15  53 SW5       30.32R WCI  25
DELTA          CLEAR     23  18  80 E5        30.43S WCI  17
PRICE          CLEAR     31  13  47 N10       30.32R WCI  22
RICHFIELD      CLEAR     23  18  80 CALM      30.42
ROOSEVELT      CLOUDY    21  12  68 CALM      30.39R
VERNAL         CLOUDY    22  14  71 W6        30.35S WCI  14

$$

UTZ013>016-019>022-027-150400-

SOUTHERN UTAH

CITY           SKY/WX    TMP DP  RH WIND       PRES   REMARKS
BRYCE CANYON   CLEAR     23  13  65 W8        30.37S WCI  14
CEDAR CITY     CLEAR     21  16  81 CALM      30.38R
MILFORD        CLEAR     21  15  78 NE3       30.41R
ST GEORGE      CLEAR     49  22  34 NE15      30.30R
HANKSVILLE     CLEAR     36  12  38 CALM      30.35S
KANAB          CLEAR     41  10  28 N6        30.36
BLANDING         N/A     35   6  29 NW5       30.35R WCI  31

$$

REGIONAL REPORTS     COLORADO/ARIZONA

CITY           SKY/WX    TMP DP  RH WIND       PRES   REMARKS
CRAIG, CO      CLOUDY    10   6  84 SE3       30.35S
GRAND JUNCTION CLEAR     36  16  44 NE12      30.35R WCI  28
RIFLE, CO      CLOUDY    23   8  52 SE6       30.37R WCI  16
MONTROSE, CO   CLOUDY    26  17  68 SE8       30.37R WCI  18
CORTEZ, CO     CLEAR     34  11  38 N7        30.25S WCI  28
COLORADO CITY    N/A     30  16  55 E5        30.34R WCI  25
PAGE, AZ       CLEAR     42  13  30 SW3       30.29R
GRAND CANYON   CLEAR     22   4  46 CALM      30.30R
KINGMAN, AZ    CLEAR     44  17  33 E10       30.23R
FLAGSTAFF, AZ  CLEAR     36   7  29 E10       30.25R WCI  28

$$

REGIONAL REPORTS    NEVADA/IDAHO/WYOMING

CITY           SKY/WX    TMP DP  RH WIND       PRES   REMARKS
LAS VEGAS, NV  PTCLDY    58  21  24 SW3       30.24R
ELY, NY        CLEAR     21  10  62 S12       30.40R WCI   9
ELKO, NV       PTCLDY    23  20  88 CALM      30.39S
POCATELLO, ID  FOG       23  21  92 N6        30.44R VSB 1/2 WCI  16
BURLEY, ID     FOG       25  22  88 E7        30.41R VSB 1/2 WCI  17
FORT BRIDGER,    N/A     30  16  56 W15       30.35S WCI  19
EVANSTON, WY   CLOUDY    27  19  72 S9        30.35S WCI  18
ROCK SPRINGS,  CLOUDY    28  10  46 SW17      30.28S WCI  16

$$




USA.gov is the U.S. government's official web portal to all federal, state and local government web resources and services.